Lid_Strength_Index
14 13 5 3 -0 -1 -2 -2 -2 -2 -2 -2 -2 -2 -2 -2 -2 -2 -2 -2 -2 -2 -2 -2 -2 -2 -2 -2 -1 -1 -1 -1 -1 -1 -1 -1 -1 -1 -1 -1 -1 -0 -1
14 14 7 4 1 -0 -0 -1 -2 -2 -2 -2 -2 -2 -2 -2 -2 -2 -2 -2 -2 -2 -2 -2 -2 -2 -2 -1 -1 -1 -1 -1 -1 -1 -1 -1 -1 -1 -1 -1 -2 -1 -1
15 14 13 4 2 1 1 -0 -0 -1 -1 -2 -2 -2 -2 -2 -2 -2 -2 -2 -2 -2 -2 -2 -2 -2 -2 -1 -1 -1 -1 -1 -1 -1 -1 0 0 -1 -1 -1 -1 -1 -1
16 15 14 5 3 2 1 1 1 0 -0 -0 -1 -2 -2 -2 -2 -2 -2 -2 -2 -2 -2 -2 -2 -2 -1 -1 -1 -1 -1 -1 -1 -1 -0 0 -0 -1 -1 -1 -1 -1 -1
17 17 14 7 5 3 3 2 2 2 1 1 1 1 -0 -1 -2 -2 -2 -2 -2 -2 -2 -2 -2 -2 -1 -1 -1 -1 -1 -1 -1 -1 1 1 0 -1 -1 -1 -1 -1 -1
18 17 14 8 6 5 4 3 3 3 3 3 3 3 1 0 -0 -0 -0 -0 -1 -1 -2 -2 -2 -2 -1 -1 -1 -1 -1 -1 -1 0 0 0 0 -1 -1 -1 -1 -1 -1
19 18 17 10 9 7 6 5 4 4 4 4 4 4 3 3 2 2 1 1 0 -0 -1 -2 -2 -2 -2 -1 -2 -1 -1 -1 0 0 0 0 0 -1 -1 -1 -1 -1 -1
19 19 18 15 11 9 7 7 6 6 6 6 6 6 5 5 4 3 3 3 2 1 1 0 -1 -1 -1 -2 -2 -2 -1 -1 -0 0 0 0 -1 -1 -1 -2 -1 -1 -1
18 19 19 19 17 14 10 9 8 8 8 8 7 8 8 8 7 6 6 4 4 3 3 2 1 1 1 1 -0 -0 -1 -0 1 0 -0 -0 -1 -1 -1 -2 -2 -1 -1
19 19 19 19 19 19 17 11 10 10 10 10 10 10 11 12 10 9 8 7 6 5 4 4 3 3 3 3 2 1 0 -0 1 1 0 -0 -1 -1 -2 -2 -2 -2 -2
19 19 19 20 19 19 17 16 15 13 13 13 14 12 15 16 14 14 10 9 8 7 6 6 5 6 6 5 4 3 2 1 1 0 0 -1 -1 -1 -1 -2 -2 -2 -1
21 20 20 20 20 19 17 19 18 17 17 17 18 17 17 17 15 14 13 10 10 9 9 8 8 8 9 10 8 5 4 3 1 1 -0 -1 -2 -1 -1 -1 -1 -2 -2
20 20 19 20 19 19 19 18 18 17 18 18 18 18 18 17 17 16 16 15 15 13 14 13 13 12 12 11 10 8 6 5 3 2 0 -1 -2 -1 -2 -2 -1 -1 -1
21 20 20 21 20 20 20 20 19 19 19 19 19 19 19 19 19 18 18 17 16 16 16 15 15 14 13 12 11 10 9 7 5 3 1 -0 -1 -2 -1 -1 -1 -2 -1
21 21 21 21 21 21 21 20 20 20 20 20 20 19 19 19 19 18 18 17 17 16 16 16 16 15 14 13 11 10 9 9 7 5 2 1 -1 -1 -1 -2 -1 -1 -2
21 21 21 21 21 21 21 21 21 21 20 20 20 20 19 19 20 19 19 18 18 17 17 17 17 16 15 14 13 12 11 10 9 7 5 1 -0 -0 -1 -2 -2 -2 -2
22 21 21 21 21 22 21 21 21 20 20 21 21 20 20 20 20 20 20 20 19 18 18 17 17 16 16 15 15 14 13 12 10 7 6 2 1 1 0 -1 -1 -2 -2
22 22 21 21 21 22 22 21 21 21 22 22 21 21 21 20 20 20 20 20 19 19 19 19 18 18 17 16 17 15 14 12 10 8 6 3 1 1 0 0 -1 -2 -2
23 22 22 21 22 22 22 22 22 22 22 22 23 22 21 21 20 21 20 20 19 19 19 19 19 18 19 18 17 16 14 14 12 8 6 4 3 2 1 1 1 1 -0
24 23 22 22 23 23 23 22 22 22 22 23 23 22 22 21 21 21 20 20 19 19 20 20 20 19 18 18 17 16 16 14 11 12 11 8 6 5 4 4 3 3 1
23 24 24 23 24 23 24 24 23 24 23 23 22 23 23 23 21 21 21 20 20 20 21 20 20 19 19 18 18 17 16 12 13 14 11 11 8 9 7 6 5 4 4
23 24 24 23 24 24 23 23 23 24 23 23 23 23 23 24 22 21 22 21 21 21 21 21 21 20 19 19 20 17 18 16 15 16 14 12 13 10 10 9 9 7 5
25 25 24 24 24 24 26 23 23 23 23 24 24 24 24 24 23 22 22 22 22 21 22 21 21 21 21 19 18 19 21 21 20 16 15 15 13 14 12 11 10 8 8
25 25 24 24 23 25 26 28 28 26 26 26 26 25 25 24 24 23 23 23 23 22 22 22 21 21 21 21 19 18 18 19 21 20 17 16 16 15 15 13 11 11 8
23 26 27 27 26 27 29 29 32 29 29 27 27 27 27 26 25 24 24 24 24 23 23 22 22 22 21 21 20 20 19 19 19 20 21 20 17 16 15 14 13 11 10
25 26 27 27 27 28 29 32 31 34 33 29 29 28 27 27 26 26 25 25 25 25 24 23 22 22 22 22 20 20 20 20 20 20 21 20 19 17 16 15 14 12 10